TimeCST,TemperatureF,Dew PointF,Humidity,Sea Level PressureIn,VisibilityMPH,Wind Direction,Wind SpeedMPH,Gust SpeedMPH,PrecipitationIn,Events,Conditions,WindDirDegrees,DateUTC
12:56 AM,10.0,6.1,84,30.22,9.0,West,8.1,-,N/A,,Clear,270,2012-12-27 06:56:00
1:56 AM,9.0,6.1,88,30.23,9.0,West,3.5,-,N/A,,Overcast,270,2012-12-27 07:56:00
2:56 AM,7.0,3.9,87,30.23,9.0,Calm,Calm,-,N/A,,Overcast,0,2012-12-27 08:56:00
3:56 AM,10.0,6.1,84,30.25,9.0,West,5.8,-,N/A,,Overcast,270,2012-12-27 09:56:00
4:56 AM,10.9,7.0,84,30.25,9.0,West,3.5,-,N/A,,Overcast,260,2012-12-27 10:56:00
6:56 AM,12.9,9.0,84,30.25,9.0,West,4.6,-,N/A,,Overcast,260,2012-12-27 12:56:00
7:56 AM,14.0,10.0,84,30.26,8.0,West,4.6,-,N/A,,Overcast,280,2012-12-27 13:56:00
8:56 AM,15.1,10.0,80,30.24,8.0,Calm,Calm,-,N/A,,Overcast,0,2012-12-27 14:56:00
9:56 AM,17.1,12.0,81,30.26,8.0,Calm,Calm,-,N/A,,Overcast,0,2012-12-27 15:56:00
10:56 AM,19.9,15.1,81,30.25,8.0,Calm,Calm,-,N/A,,Overcast,0,2012-12-27 16:56:00
11:56 AM,23.0,16.0,74,30.22,8.0,Calm,Calm,-,N/A,,Overcast,0,2012-12-27 17:56:00
12:35 PM,24.8,17.6,74,30.19,9.0,Calm,Calm,-,N/A,,Overcast,0,2012-12-27 18:35:00
2:56 PM,28.0,18.0,66,30.20,10.0,Calm,Calm,-,N/A,,Overcast,0,2012-12-27 20:56:00
3:56 PM,27.0,17.1,66,30.20,10.0,North,4.6,-,N/A,,Overcast,360,2012-12-27 21:56:00
4:56 PM,26.1,16.0,66,30.19,10.0,NE,8.1,-,N/A,,Overcast,50,2012-12-27 22:56:00
5:56 PM,26.1,16.0,66,30.19,10.0,ENE,5.8,-,N/A,,Overcast,60,2012-12-27 23:56:00
6:56 PM,25.0,17.1,72,30.18,10.0,East,8.1,-,N/A,,Overcast,80,2012-12-28 00:56:00
7:56 PM,24.1,17.1,75,30.17,10.0,East,8.1,-,N/A,,Overcast,90,2012-12-28 01:56:00
8:56 PM,24.1,17.1,75,30.17,10.0,East,5.8,-,N/A,,Overcast,80,2012-12-28 02:56:00
9:56 PM,25.0,18.0,75,30.16,10.0,ENE,6.9,-,N/A,,Overcast,70,2012-12-28 03:56:00
10:09 PM,24.8,17.6,74,30.14,10.0,East,5.8,-,N/A,,Overcast,90,2012-12-28 04:09:00
10:48 PM,24.8,17.6,74,30.13,10.0,ENE,5.8,-,N/A,,Overcast,70,2012-12-28 04:48:00
10:56 PM,25.0,17.1,72,30.15,10.0,East,6.9,-,N/A,,Overcast,80,2012-12-28 04:56:00
11:56 PM,25.0,18.0,75,30.14,10.0,ENE,6.9,-,N/A,,Overcast,70,2012-12-28 05:56:00